Time,TemperatureF,DewpointF,PressureIn,WindDirection,WindDirectionDegrees,WindSpeedMPH,WindSpeedGustMPH,Humidity,HourlyPrecipIn,Conditions,Clouds,dailyrainin,SoftwareType,DateUTC
2013-04-24 00:01:00,73.4,63.4,30.10,ENE,70,0.0,1.0,71,0.00,,,0.00,Wunderground v.1.15,2013-04-24 04:01:00,
2013-04-24 00:02:00,73.3,63.3,30.10,East,80,1.0,1.0,71,0.00,,,0.00,Wunderground v.1.15,2013-04-24 04:02:00,
2013-04-24 00:03:00,73.3,63.3,30.10,NE,39,1.0,1.0,71,0.00,,,0.00,Wunderground v.1.15,2013-04-24 04:03:00,
2013-04-24 00:08:00,73.4,63.4,30.09,East,82,0.0,4.0,71,0.00,,,0.00,Wunderground v.1.15,2013-04-24 04:08:00,
2013-04-24 00:13:00,73.3,63.3,30.09,NNE,30,4.0,4.0,71,0.00,,,0.00,Wunderground v.1.15,2013-04-24 04:13:00,
2013-04-24 00:17:00,73.3,63.3,30.09,ENE,65,0.0,4.0,71,0.00,,,0.00,Wunderground v.1.15,2013-04-24 04:17:00,
2013-04-24 00:23:00,73.2,63.2,30.09,ENE,71,0.0,1.0,71,0.00,,,0.00,Wunderground v.1.15,2013-04-24 04:23:00,
2013-04-24 00:28:00,73.2,63.6,30.10,ENE,77,0.0,1.0,72,0.00,,,0.00,Wunderground v.1.15,2013-04-24 04:28:00,
2013-04-24 00:33:00,73.1,63.1,30.10,NE,46,0.0,1.0,71,0.00,,,0.00,Wunderground v.1.15,2013-04-24 04:33:00,
2013-04-24 00:38:00,73.1,63.1,30.10,ENE,57,3.0,3.0,71,0.00,,,0.00,Wunderground v.1.15,2013-04-24 04:38:00,
2013-04-24 00:43:00,73.2,63.2,30.10,NE,56,0.0,3.0,71,0.00,,,0.00,Wunderground v.1.15,2013-04-24 04:43:00,
2013-04-24 00:48:00,73.2,62.8,30.10,NE,41,0.0,5.0,70,0.00,,,0.00,Wunderground v.1.15,2013-04-24 04:48:00,
2013-04-24 00:54:00,73.2,62.8,30.10,NNE,21,2.0,4.0,70,0.00,,,0.00,Wunderground v.1.15,2013-04-24 04:54:00,
2013-04-24 00:59:00,73.2,62.8,30.09,NNE,19,3.0,4.0,70,0.00,,,0.00,Wunderground v.1.15,2013-04-24 04:59:00,
2013-04-24 01:05:00,73.3,62.9,30.09,ENE,63,0.0,3.0,70,0.00,,,0.00,Wunderground v.1.15,2013-04-24 05:05:00,
2013-04-24 01:10:00,73.3,62.9,30.09,NE,47,2.0,2.0,70,0.00,,,0.00,Wunderground v.1.15,2013-04-24 05:10:00,
2013-04-24 01:15:00,73.2,62.8,30.09,East,91,2.0,3.0,70,0.00,,,0.00,Wunderground v.1.15,2013-04-24 05:15:00,
2013-04-24 01:20:00,73.2,62.8,30.08,East,87,0.0,1.0,70,0.00,,,0.00,Wunderground v.1.15,2013-04-24 05:20:00,
2013-04-24 01:25:00,73.1,62.7,30.08,ENE,65,0.0,2.0,70,0.00,,,0.00,Wunderground v.1.15,2013-04-24 05:25:00,
2013-04-24 01:31:00,73.1,63.1,30.08,NNE,22,0.0,1.0,71,0.00,,,0.00,Wunderground v.1.15,2013-04-24 05:31:00,
2013-04-24 01:36:00,73.0,63.0,30.08,NE,39,0.0,1.0,71,0.00,,,0.00,Wunderground v.1.15,2013-04-24 05:36:00,
2013-04-24 01:41:00,72.9,63.3,30.08,East,83,2.0,2.0,72,0.00,,,0.00,Wunderground v.1.15,2013-04-24 05:41:00,
2013-04-24 01:46:00,72.9,62.9,30.07,East,81,1.0,5.0,71,0.00,,,0.00,Wunderground v.1.15,2013-04-24 05:46:00,
2013-04-24 01:51:00,72.9,62.5,30.07,ENE,65,2.0,3.0,70,0.00,,,0.00,Wunderground v.1.15,2013-04-24 05:51:00,
2013-04-24 01:57:00,72.7,62.3,30.07,East,83,1.0,3.0,70,0.00,,,0.00,Wunderground v.1.15,2013-04-24 05:57:00,
2013-04-24 02:02:00,72.6,62.3,30.07,East,82,2.0,3.0,70,0.00,,,0.00,Wunderground v.1.15,2013-04-24 06:02:00,
2013-04-24 02:07:00,72.5,62.2,30.07,ENE,73,1.0,4.0,70,0.00,,,0.00,Wunderground v.1.15,2013-04-24 06:07:00,
2013-04-24 02:12:00,72.5,62.2,30.07,NNE,32,0.0,5.0,70,0.00,,,0.00,Wunderground v.1.15,2013-04-24 06:12:00,
2013-04-24 02:17:00,72.5,62.2,30.06,ENE,66,0.0,5.0,70,0.00,,,0.00,Wunderground v.1.15,2013-04-24 06:17:00,
2013-04-24 02:22:00,72.4,62.5,30.06,East,93,0.0,5.0,71,0.00,,,0.00,Wunderground v.1.15,2013-04-24 06:22:00,
2013-04-24 02:27:00,72.4,62.5,30.06,East,89,0.0,5.0,71,0.00,,,0.00,Wunderground v.1.15,2013-04-24 06:27:00,
2013-04-24 02:32:00,72.4,62.9,30.06,East,82,0.0,3.0,72,0.00,,,0.00,Wunderground v.1.15,2013-04-24 06:32:00,
2013-04-24 02:37:00,72.4,62.9,30.06,ENE,75,0.0,3.0,72,0.00,,,0.00,Wunderground v.1.15,2013-04-24 06:37:00,
2013-04-24 02:43:00,72.3,63.2,30.06,East,82,0.0,1.0,73,0.00,,,0.00,Wunderground v.1.15,2013-04-24 06:43:00,
2013-04-24 02:48:00,72.3,63.5,30.06,SE,134,0.0,4.0,74,0.00,,,0.00,Wunderground v.1.15,2013-04-24 06:48:00,
2013-04-24 02:53:00,72.5,63.4,30.06,East,82,2.0,7.0,73,0.00,,,0.00,Wunderground v.1.15,2013-04-24 06:53:00,
2013-04-24 02:58:00,72.7,63.1,30.06,East,85,4.0,7.0,72,0.00,,,0.00,Wunderground v.1.15,2013-04-24 06:58:00,
2013-04-24 03:03:00,72.7,62.8,30.06,East,89,0.0,5.0,71,0.00,,,0.00,Wunderground v.1.15,2013-04-24 07:03:00,
2013-04-24 03:08:00,72.6,62.7,30.06,ESE,105,1.0,5.0,71,0.00,,,0.00,Wunderground v.1.15,2013-04-24 07:08:00,
2013-04-24 03:13:00,72.3,62.8,30.06,NE,44,0.0,2.0,72,0.00,,,0.00,Wunderground v.1.15,2013-04-24 07:13:00,
2013-04-24 03:18:00,72.3,62.8,30.06,East,89,0.0,2.0,72,0.00,,,0.00,Wunderground v.1.15,2013-04-24 07:18:00,
2013-04-24 03:23:00,72.1,62.6,30.06,East,79,0.0,1.0,72,0.00,,,0.00,Wunderground v.1.15,2013-04-24 07:23:00,
2013-04-24 03:28:00,71.9,62.8,30.06,East,89,0.0,2.0,73,0.00,,,0.00,Wunderground v.1.15,2013-04-24 07:28:00,
2013-04-24 03:33:00,71.7,62.6,30.06,East,79,0.0,1.0,73,0.00,,,0.00,Wunderground v.1.15,2013-04-24 07:33:00,
2013-04-24 03:38:00,71.5,62.8,30.06,East,82,0.0,1.0,74,0.00,,,0.00,Wunderground v.1.15,2013-04-24 07:38:00,
2013-04-24 03:43:00,71.3,62.6,30.06,East,84,0.0,1.0,74,0.00,,,0.00,Wunderground v.1.15,2013-04-24 07:43:00,
2013-04-24 03:49:00,71.3,62.6,30.06,NNE,32,0.0,1.0,74,0.00,,,0.00,Wunderground v.1.15,2013-04-24 07:49:00,
2013-04-24 03:54:00,71.2,62.5,30.06,East,84,0.0,1.0,74,0.00,,,0.00,Wunderground v.1.15,2013-04-24 07:54:00,
2013-04-24 03:59:00,71.2,62.5,30.06,East,80,0.0,1.0,74,0.00,,,0.00,Wunderground v.1.15,2013-04-24 07:59:00,
2013-04-24 04:04:00,71.1,62.8,30.05,NE,45,0.0,1.0,75,0.00,,,0.00,Wunderground v.1.15,2013-04-24 08:04:00,
2013-04-24 04:09:00,71.1,62.8,30.06,ENE,72,0.0,1.0,75,0.00,,,0.00,Wunderground v.1.15,2013-04-24 08:09:00,
2013-04-24 04:14:00,71.1,62.8,30.06,ENE,72,0.0,1.0,75,0.00,,,0.00,Wunderground v.1.15,2013-04-24 08:14:00,
2013-04-24 04:19:00,71.2,62.9,30.06,East,86,0.0,2.0,75,0.00,,,0.00,Wunderground v.1.15,2013-04-24 08:19:00,
2013-04-24 04:24:00,71.4,63.1,30.06,East,79,0.0,1.0,75,0.00,,,0.00,Wunderground v.1.15,2013-04-24 08:24:00,
2013-04-24 04:29:00,71.6,63.3,30.06,East,85,0.0,2.0,75,0.00,,,0.00,Wunderground v.1.15,2013-04-24 08:29:00,
2013-04-24 04:34:00,71.7,63.4,30.06,East,89,0.0,1.0,75,0.00,,,0.00,Wunderground v.1.15,2013-04-24 08:34:00,
2013-04-24 04:39:00,71.8,63.4,30.06,NNE,25,0.0,1.0,75,0.00,,,0.00,Wunderground v.1.15,2013-04-24 08:39:00,
2013-04-24 04:44:00,71.6,63.3,30.06,NNE,25,0.0,0.0,75,0.00,,,0.00,Wunderground v.1.15,2013-04-24 08:44:00,
2013-04-24 04:49:00,71.3,63.3,30.06,NNE,26,0.0,0.0,76,0.00,,,0.00,Wunderground v.1.15,2013-04-24 08:49:00,
2013-04-24 04:54:00,71.1,63.5,30.06,NE,41,0.0,1.0,77,0.00,,,0.00,Wunderground v.1.15,2013-04-24 08:54:00,
2013-04-24 04:59:00,70.9,63.3,30.06,NE,41,0.0,1.0,77,0.00,,,0.00,Wunderground v.1.15,2013-04-24 08:59:00,
2013-04-24 05:04:00,70.7,63.5,30.06,NE,41,0.0,0.0,78,0.00,,,0.00,Wunderground v.1.15,2013-04-24 09:04:00,
2013-04-24 05:09:00,70.6,63.4,30.06,NE,41,0.0,0.0,78,0.00,,,0.00,Wunderground v.1.15,2013-04-24 09:09:00,
2013-04-24 05:14:00,70.5,63.7,30.06,NE,41,0.0,0.0,79,0.00,,,0.00,Wunderground v.1.15,2013-04-24 09:14:00,
2013-04-24 05:19:00,70.4,63.6,30.06,NE,41,0.0,0.0,79,0.00,,,0.00,Wunderground v.1.15,2013-04-24 09:19:00,
2013-04-24 05:24:00,70.5,64.0,30.06,NE,41,0.0,0.0,80,0.00,,,0.00,Wunderground v.1.15,2013-04-24 09:24:00,
2013-04-24 05:29:00,70.6,64.1,30.06,NE,41,0.0,0.0,80,0.00,,,0.00,Wunderground v.1.15,2013-04-24 09:29:00,
2013-04-24 05:34:00,70.7,64.2,30.07,NE,41,0.0,0.0,80,0.00,,,0.00,Wunderground v.1.15,2013-04-24 09:34:00,
2013-04-24 05:39:00,70.6,64.1,30.07,NE,41,0.0,0.0,80,0.00,,,0.00,Wunderground v.1.15,2013-04-24 09:39:00,
2013-04-24 05:44:00,70.5,64.0,30.07,NE,41,0.0,1.0,80,0.00,,,0.00,Wunderground v.1.15,2013-04-24 09:44:00,
2013-04-24 05:49:00,70.4,63.9,30.07,ENE,58,0.0,1.0,80,0.00,,,0.00,Wunderground v.1.15,2013-04-24 09:49:00,
2013-04-24 05:54:00,70.6,64.1,30.07,East,87,0.0,1.0,80,0.00,,,0.00,Wunderground v.1.15,2013-04-24 09:54:00,
2013-04-24 05:59:00,70.9,64.1,30.07,ENE,78,0.0,1.0,79,0.00,,,0.00,Wunderground v.1.15,2013-04-24 09:59:00,
2013-04-24 06:04:00,71.0,63.8,30.07,ESE,108,0.0,1.0,78,0.00,,,0.00,Wunderground v.1.15,2013-04-24 10:04:00,
2013-04-24 06:09:00,71.0,63.8,30.08,East,87,0.0,1.0,78,0.00,,,0.00,Wunderground v.1.15,2013-04-24 10:09:00,
2013-04-24 06:14:00,70.8,63.6,30.08,NE,56,0.0,1.0,78,0.00,,,0.00,Wunderground v.1.15,2013-04-24 10:14:00,
2013-04-24 06:19:00,70.7,63.5,30.08,East,91,0.0,1.0,78,0.00,,,0.00,Wunderground v.1.15,2013-04-24 10:19:00,
2013-04-24 06:24:00,70.7,63.5,30.08,East,86,0.0,0.0,78,0.00,,,0.00,Wunderground v.1.15,2013-04-24 10:24:00,
2013-04-24 06:29:00,70.4,63.2,30.08,East,86,0.0,0.0,78,0.00,,,0.00,Wunderground v.1.15,2013-04-24 10:29:00,
2013-04-24 06:34:00,70.1,63.3,30.08,East,87,0.0,0.0,79,0.00,,,0.00,Wunderground v.1.15,2013-04-24 10:34:00,
2013-04-24 06:39:00,69.8,63.0,30.08,East,86,0.0,1.0,79,0.00,,,0.00,Wunderground v.1.15,2013-04-24 10:39:00,
2013-04-24 06:44:00,69.9,63.1,30.08,East,89,0.0,2.0,79,0.00,,,0.00,Wunderground v.1.15,2013-04-24 10:44:00,
2013-04-24 06:49:00,69.8,63.0,30.08,East,89,0.0,2.0,79,0.00,,,0.00,Wunderground v.1.15,2013-04-24 10:49:00,
2013-04-24 06:54:00,69.7,62.9,30.08,East,89,0.0,0.0,79,0.00,,,0.00,Wunderground v.1.15,2013-04-24 10:54:00,
2013-04-24 06:59:00,69.6,62.8,30.09,East,89,0.0,0.0,79,0.00,,,0.00,Wunderground v.1.15,2013-04-24 10:59:00,
2013-04-24 07:04:00,69.3,62.9,30.09,East,89,0.0,0.0,80,0.00,,,0.00,Wunderground v.1.15,2013-04-24 11:04:00,
2013-04-24 07:09:00,69.2,63.1,30.09,East,89,0.0,0.0,81,0.00,,,0.00,Wunderground v.1.15,2013-04-24 11:09:00,
2013-04-24 07:14:00,69.1,63.0,30.09,East,89,0.0,0.0,81,0.00,,,0.00,Wunderground v.1.15,2013-04-24 11:14:00,
2013-04-24 07:19:00,69.2,63.1,30.09,East,89,0.0,0.0,81,0.00,,,0.00,Wunderground v.1.15,2013-04-24 11:19:00,
2013-04-24 07:24:00,69.5,63.4,30.09,East,89,0.0,0.0,81,0.00,,,0.00,Wunderground v.1.15,2013-04-24 11:24:00,
2013-04-24 07:29:00,69.8,63.7,30.09,East,89,0.0,0.0,81,0.00,,,0.00,Wunderground v.1.15,2013-04-24 11:29:00,
2013-04-24 07:34:00,70.3,64.2,30.10,East,89,0.0,0.0,81,0.00,,,0.00,Wunderground v.1.15,2013-04-24 11:34:00,
2013-04-24 07:39:00,70.8,64.3,30.10,East,89,0.0,0.0,80,0.00,,,0.00,Wunderground v.1.15,2013-04-24 11:39:00,
2013-04-24 07:44:00,71.2,64.4,30.10,East,87,0.0,1.0,79,0.00,,,0.00,Wunderground v.1.15,2013-04-24 11:44:00,
2013-04-24 07:49:00,71.6,64.7,30.10,East,85,0.0,1.0,79,0.00,,,0.00,Wunderground v.1.15,2013-04-24 11:49:00,
2013-04-24 07:54:00,72.0,65.1,30.10,East,86,0.0,0.0,79,0.00,,,0.00,Wunderground v.1.15,2013-04-24 11:54:00,
2013-04-24 07:59:00,72.6,65.0,30.11,East,91,0.0,1.0,77,0.00,,,0.00,Wunderground v.1.15,2013-04-24 11:59:00,
2013-04-24 08:04:00,73.3,65.3,30.11,East,86,0.0,1.0,76,0.00,,,0.00,Wunderground v.1.15,2013-04-24 12:04:00,
2013-04-24 08:09:00,73.6,65.2,30.11,ENE,72,0.0,2.0,75,0.00,,,0.00,Wunderground v.1.15,2013-04-24 12:09:00,
2013-04-24 08:14:00,73.8,65.4,30.11,East,86,0.0,2.0,75,0.00,,,0.00,Wunderground v.1.15,2013-04-24 12:14:00,
2013-04-24 08:19:00,74.3,65.1,30.11,ENE,75,0.0,6.0,73,0.00,,,0.00,Wunderground v.1.15,2013-04-24 12:19:00,
2013-04-24 08:24:00,75.1,65.5,30.11,East,79,1.0,3.0,72,0.00,,,0.00,Wunderground v.1.15,2013-04-24 12:24:00,
2013-04-24 08:29:00,76.0,66.3,30.11,ESE,105,0.0,3.0,72,0.00,,,0.00,Wunderground v.1.15,2013-04-24 12:29:00,
2013-04-24 08:34:00,76.8,66.3,30.12,East,85,0.0,4.0,70,0.00,,,0.00,Wunderground v.1.15,2013-04-24 12:34:00,
2013-04-24 08:39:00,77.2,65.4,30.12,East,93,0.0,4.0,67,0.00,,,0.00,Wunderground v.1.15,2013-04-24 12:39:00,
2013-04-24 08:44:00,77.8,66.0,30.12,ENE,77,1.0,5.0,67,0.00,,,0.00,Wunderground v.1.15,2013-04-24 12:44:00,
2013-04-24 08:49:00,77.8,65.5,30.12,East,94,8.0,10.0,66,0.00,,,0.00,Wunderground v.1.15,2013-04-24 12:49:00,
2013-04-24 08:54:00,77.7,65.0,30.12,East,89,2.0,12.0,65,0.00,,,0.00,Wunderground v.1.15,2013-04-24 12:54:00,
2013-04-24 08:59:00,77.8,65.5,30.12,ENE,70,1.0,12.0,66,0.00,,,0.00,Wunderground v.1.15,2013-04-24 12:59:00,
2013-04-24 09:04:00,77.6,65.3,30.12,ENE,68,5.0,9.0,66,0.00,,,0.00,Wunderground v.1.15,2013-04-24 13:04:00,
2013-04-24 09:09:00,77.2,65.4,30.12,East,98,4.0,9.0,67,0.00,,,0.00,Wunderground v.1.15,2013-04-24 13:09:00,
2013-04-24 09:14:00,77.6,65.8,30.12,WNW,298,0.0,10.0,67,0.00,,,0.00,Wunderground v.1.15,2013-04-24 13:14:00,
2013-04-24 09:19:00,77.8,65.5,30.12,ENE,75,3.0,10.0,66,0.00,,,0.00,Wunderground v.1.15,2013-04-24 13:19:00,
2013-04-24 09:24:00,78.1,64.9,30.12,East,98,2.0,12.0,64,0.00,,,0.00,Wunderground v.1.15,2013-04-24 13:24:00,
2013-04-24 09:29:00,78.1,65.8,30.13,East,82,0.0,12.0,66,0.00,,,0.00,Wunderground v.1.15,2013-04-24 13:29:00,
2013-04-24 09:34:00,78.7,65.9,30.13,ENE,63,4.0,7.0,65,0.00,,,0.00,Wunderground v.1.15,2013-04-24 13:34:00,
2013-04-24 09:39:00,78.5,65.3,30.13,North,359,2.0,10.0,64,0.00,,,0.00,Wunderground v.1.15,2013-04-24 13:39:00,
2013-04-24 09:44:00,78.5,65.3,30.13,East,98,1.0,8.0,64,0.00,,,0.00,Wunderground v.1.15,2013-04-24 13:44:00,
2013-04-24 09:49:00,79.0,65.8,30.13,East,87,5.0,8.0,64,0.00,,,0.00,Wunderground v.1.15,2013-04-24 13:49:00,
2013-04-24 09:54:00,79.3,65.1,30.13,East,91,2.0,9.0,62,0.00,,,0.00,Wunderground v.1.15,2013-04-24 13:54:00,
2013-04-24 09:59:00,79.6,65.9,30.13,ESE,111,1.0,9.0,63,0.00,,,0.00,Wunderground v.1.15,2013-04-24 13:59:00,
2013-04-24 10:05:00,79.8,65.2,30.14,NE,51,4.0,10.0,61,0.00,,,0.00,Wunderground v.1.15,2013-04-24 14:05:00,
2013-04-24 10:10:00,79.5,65.3,30.13,NE,39,2.0,2.0,62,0.00,,,0.00,Wunderground v.1.15,2013-04-24 14:10:00,
2013-04-24 10:15:00,79.8,66.1,30.14,East,91,0.0,11.0,63,0.00,,,0.00,Wunderground v.1.15,2013-04-24 14:15:00,
2013-04-24 10:20:00,79.7,65.5,30.14,East,88,1.0,3.0,62,0.00,,,0.00,Wunderground v.1.15,2013-04-24 14:20:00,
2013-04-24 10:25:00,79.9,65.7,30.14,ENE,63,7.0,11.0,62,0.00,,,0.00,Wunderground v.1.15,2013-04-24 14:25:00,
2013-04-24 10:30:00,80.1,65.4,30.14,East,84,0.0,3.0,61,0.00,,,0.00,Wunderground v.1.15,2013-04-24 14:30:00,
2013-04-24 10:35:00,80.1,65.9,30.14,NE,51,2.0,8.0,62,0.00,,,0.00,Wunderground v.1.15,2013-04-24 14:35:00,
2013-04-24 10:40:00,80.6,65.9,30.14,ESE,115,2.0,2.0,61,0.00,,,0.00,Wunderground v.1.15,2013-04-24 14:40:00,
2013-04-24 10:45:00,80.6,66.4,30.15,East,85,5.0,9.0,62,0.00,,,0.00,Wunderground v.1.15,2013-04-24 14:45:00,
2013-04-24 10:50:00,80.9,65.2,30.15,East,87,2.0,8.0,59,0.00,,,0.00,Wunderground v.1.15,2013-04-24 14:50:00,
2013-04-24 10:55:00,81.0,65.3,30.14,SE,146,0.0,8.0,59,0.00,,,0.00,Wunderground v.1.15,2013-04-24 14:55:00,
2013-04-24 11:00:00,81.9,66.2,30.15,NNE,18,0.0,2.0,59,0.00,,,0.00,Wunderground v.1.15,2013-04-24 15:00:00,
2013-04-24 11:05:00,81.7,65.5,30.14,ENE,71,10.0,10.0,58,0.00,,,0.00,Wunderground v.1.15,2013-04-24 15:05:00,
2013-04-24 11:10:00,81.3,66.1,30.14,NNE,27,2.0,3.0,60,0.00,,,0.00,Wunderground v.1.15,2013-04-24 15:10:00,
2013-04-24 11:15:00,81.6,65.4,30.14,East,91,6.0,9.0,58,0.00,,,0.00,Wunderground v.1.15,2013-04-24 15:15:00,
2013-04-24 11:20:00,81.5,66.3,30.14,ENE,59,2.0,7.0,60,0.00,,,0.00,Wunderground v.1.15,2013-04-24 15:20:00,
2013-04-24 11:25:00,81.7,66.0,30.14,East,79,5.0,7.0,59,0.00,,,0.00,Wunderground v.1.15,2013-04-24 15:25:00,
2013-04-24 11:30:00,81.9,67.1,30.14,ENE,72,2.0,3.0,61,0.00,,,0.00,Wunderground v.1.15,2013-04-24 15:30:00,
2013-04-24 11:35:00,81.8,68.0,30.13,NNE,32,1.0,11.0,63,0.00,,,0.00,Wunderground v.1.15,2013-04-24 15:35:00,
2013-04-24 11:40:00,81.4,66.7,30.14,ENE,75,2.0,6.0,61,0.00,,,0.00,Wunderground v.1.15,2013-04-24 15:40:00,
2013-04-24 11:45:00,81.0,67.2,30.13,ENE,65,0.0,13.0,63,0.00,,,0.00,Wunderground v.1.15,2013-04-24 15:45:00,
2013-04-24 11:50:00,80.8,67.0,30.13,ENE,75,1.0,5.0,63,0.00,,,0.00,Wunderground v.1.15,2013-04-24 15:50:00,
2013-04-24 11:55:00,80.6,66.8,30.13,NE,39,3.0,7.0,63,0.00,,,0.00,Wunderground v.1.15,2013-04-24 15:55:00,
2013-04-24 12:00:00,80.7,66.9,30.13,ESE,114,4.0,7.0,63,0.00,,,0.00,Wunderground v.1.15,2013-04-24 16:00:00,
2013-04-24 12:05:00,81.4,67.6,30.13,ENE,60,3.0,7.0,63,0.00,,,0.00,Wunderground v.1.15,2013-04-24 16:05:00,
2013-04-24 12:10:00,81.8,68.0,30.13,NNE,23,2.0,6.0,63,0.00,,,0.00,Wunderground v.1.15,2013-04-24 16:10:00,
2013-04-24 12:15:00,81.6,67.3,30.13,East,93,2.0,9.0,62,0.00,,,0.00,Wunderground v.1.15,2013-04-24 16:15:00,
2013-04-24 12:20:00,82.0,66.3,30.13,ESE,119,7.0,7.0,59,0.00,,,0.00,Wunderground v.1.15,2013-04-24 16:20:00,
2013-04-24 12:25:00,82.8,66.5,30.13,ENE,77,0.0,8.0,58,0.00,,,0.00,Wunderground v.1.15,2013-04-24 16:25:00,
2013-04-24 12:30:00,83.0,68.6,30.12,ENE,74,4.0,4.0,62,0.00,,,0.00,Wunderground v.1.15,2013-04-24 16:30:00,
2013-04-24 12:35:00,82.4,67.6,30.12,East,84,4.0,10.0,61,0.00,,,0.00,Wunderground v.1.15,2013-04-24 16:35:00,
2013-04-24 12:40:00,82.1,67.3,30.12,ENE,69,0.0,7.0,61,0.00,,,0.00,Wunderground v.1.15,2013-04-24 16:40:00,
2013-04-24 12:45:00,81.5,67.2,30.12,ENE,76,3.0,7.0,62,0.00,,,0.00,Wunderground v.1.15,2013-04-24 16:45:00,
2013-04-24 12:50:00,81.5,68.1,30.12,ENE,69,3.0,6.0,64,0.00,,,0.00,Wunderground v.1.15,2013-04-24 16:50:00,
2013-04-24 12:55:00,82.1,68.3,30.11,NNE,13,2.0,10.0,63,0.00,,,0.00,Wunderground v.1.15,2013-04-24 16:55:00,
2013-04-24 13:01:00,82.6,69.2,30.11,East,95,2.0,8.0,64,0.00,,,0.00,Wunderground v.1.15,2013-04-24 17:01:00,
2013-04-24 13:06:00,83.3,68.9,30.11,East,96,6.0,9.0,62,0.00,,,0.00,Wunderground v.1.15,2013-04-24 17:06:00,
2013-04-24 13:11:00,82.8,68.9,30.11,East,91,0.0,6.0,63,0.00,,,0.00,Wunderground v.1.15,2013-04-24 17:11:00,
2013-04-24 13:16:00,83.1,67.8,30.11,East,91,6.0,8.0,60,0.00,,,0.00,Wunderground v.1.15,2013-04-24 17:16:00,
2013-04-24 13:21:00,82.1,67.8,30.11,SSW,203,0.0,6.0,62,0.00,,,0.00,Wunderground v.1.15,2013-04-24 17:21:00,
2013-04-24 13:26:00,83.0,69.1,30.11,East,84,1.0,6.0,63,0.00,,,0.00,Wunderground v.1.15,2013-04-24 17:26:00,
2013-04-24 13:31:00,83.7,68.8,30.11,ENE,65,1.0,7.0,61,0.00,,,0.00,Wunderground v.1.15,2013-04-24 17:31:00,
2013-04-24 13:36:00,84.0,68.1,30.11,ESE,106,4.0,7.0,59,0.00,,,0.00,Wunderground v.1.15,2013-04-24 17:36:00,
2013-04-24 13:41:00,84.3,69.4,30.11,ENE,65,3.0,8.0,61,0.00,,,0.00,Wunderground v.1.15,2013-04-24 17:41:00,
2013-04-24 13:46:00,83.6,68.2,30.11,NE,36,1.0,9.0,60,0.00,,,0.00,Wunderground v.1.15,2013-04-24 17:46:00,
2013-04-24 13:51:00,83.4,68.5,30.11,East,89,1.0,3.0,61,0.00,,,0.00,Wunderground v.1.15,2013-04-24 17:51:00,
2013-04-24 13:56:00,83.5,68.6,30.11,ENE,58,2.0,7.0,61,0.00,,,0.00,Wunderground v.1.15,2013-04-24 17:56:00,
2013-04-24 14:01:00,83.1,68.3,30.11,ENE,65,6.0,6.0,61,0.00,,,0.00,Wunderground v.1.15,2013-04-24 18:01:00,
2013-04-24 14:06:00,82.7,67.4,30.10,ESE,104,4.0,7.0,60,0.00,,,0.00,Wunderground v.1.15,2013-04-24 18:06:00,
2013-04-24 14:11:00,83.2,68.8,30.10,East,96,1.0,4.0,62,0.00,,,0.00,Wunderground v.1.15,2013-04-24 18:11:00,
2013-04-24 14:16:00,83.4,67.6,30.10,East,94,5.0,10.0,59,0.00,,,0.00,Wunderground v.1.15,2013-04-24 18:16:00,
2013-04-24 14:21:00,83.0,69.1,30.10,ESE,102,4.0,7.0,63,0.00,,,0.00,Wunderground v.1.15,2013-04-24 18:21:00,
2013-04-24 14:26:00,82.8,67.5,30.10,East,79,0.0,7.0,60,0.00,,,0.00,Wunderground v.1.15,2013-04-24 18:26:00,
2013-04-24 14:31:00,83.1,67.8,30.10,East,87,2.0,12.0,60,0.00,,,0.00,Wunderground v.1.15,2013-04-24 18:31:00,
2013-04-24 14:36:00,83.0,68.2,30.10,East,98,0.0,12.0,61,0.00,,,0.00,Wunderground v.1.15,2013-04-24 18:36:00,
2013-04-24 14:41:00,82.8,67.5,30.10,East,99,5.0,9.0,60,0.00,,,0.00,Wunderground v.1.15,2013-04-24 18:41:00,
2013-04-24 14:46:00,82.4,68.1,30.10,East,85,2.0,10.0,62,0.00,,,0.00,Wunderground v.1.15,2013-04-24 18:46:00,
2013-04-24 14:51:00,83.0,68.2,30.10,ESE,111,10.0,10.0,61,0.00,,,0.00,Wunderground v.1.15,2013-04-24 18:51:00,
2013-04-24 14:56:00,82.8,68.0,30.09,ENE,77,6.0,12.0,61,0.00,,,0.00,Wunderground v.1.15,2013-04-24 18:56:00,
2013-04-24 15:01:00,83.5,68.2,30.09,East,84,0.0,6.0,60,0.00,,,0.00,Wunderground v.1.15,2013-04-24 19:01:00,
2013-04-24 15:06:00,83.8,68.4,30.09,East,94,0.0,10.0,60,0.00,,,0.00,Wunderground v.1.15,2013-04-24 19:06:00,
2013-04-24 15:11:00,83.2,69.3,30.09,NE,37,0.0,8.0,63,0.00,,,0.00,Wunderground v.1.15,2013-04-24 19:11:00,
2013-04-24 15:16:00,82.9,68.1,30.09,NE,56,3.0,8.0,61,0.00,,,0.00,Wunderground v.1.15,2013-04-24 19:16:00,
2013-04-24 15:21:00,82.3,68.4,30.09,ENE,77,3.0,4.0,63,0.00,,,0.00,Wunderground v.1.15,2013-04-24 19:21:00,
2013-04-24 15:26:00,83.0,68.2,30.08,NE,51,0.0,6.0,61,0.00,,,0.00,Wunderground v.1.15,2013-04-24 19:26:00,
2013-04-24 15:31:00,83.5,68.2,30.08,ENE,65,5.0,6.0,60,0.00,,,0.00,Wunderground v.1.15,2013-04-24 19:31:00,
2013-04-24 15:36:00,83.5,68.2,30.08,East,98,4.0,7.0,60,0.00,,,0.00,Wunderground v.1.15,2013-04-24 19:36:00,
2013-04-24 15:41:00,82.9,67.6,30.08,ENE,58,1.0,6.0,60,0.00,,,0.00,Wunderground v.1.15,2013-04-24 19:41:00,
2013-04-24 15:47:00,83.3,68.9,30.08,East,89,0.0,8.0,62,0.00,,,0.00,Wunderground v.1.15,2013-04-24 19:47:00,
2013-04-24 15:52:00,83.4,68.5,30.08,East,98,0.0,6.0,61,0.00,,,0.00,Wunderground v.1.15,2013-04-24 19:52:00,
2013-04-24 15:57:00,82.8,67.5,30.08,ENE,77,4.0,7.0,60,0.00,,,0.00,Wunderground v.1.15,2013-04-24 19:57:00,
2013-04-24 16:02:00,82.9,68.1,30.08,NE,44,2.0,6.0,61,0.00,,,0.00,Wunderground v.1.15,2013-04-24 20:02:00,
2013-04-24 16:07:00,82.4,67.6,30.08,East,91,0.0,7.0,61,0.00,,,0.00,Wunderground v.1.15,2013-04-24 20:07:00,
2013-04-24 16:12:00,82.4,68.1,30.08,ENE,78,2.0,9.0,62,0.00,,,0.00,Wunderground v.1.15,2013-04-24 20:12:00,
2013-04-24 16:17:00,82.8,68.0,30.08,NE,55,4.0,12.0,61,0.00,,,0.00,Wunderground v.1.15,2013-04-24 20:17:00,
2013-04-24 16:22:00,82.7,67.4,30.08,East,95,2.0,7.0,60,0.00,,,0.00,Wunderground v.1.15,2013-04-24 20:22:00,
2013-04-24 16:27:00,83.2,68.8,30.08,NNE,31,3.0,7.0,62,0.00,,,0.00,Wunderground v.1.15,2013-04-24 20:27:00,
2013-04-24 16:32:00,82.7,67.9,30.08,NE,42,1.0,10.0,61,0.00,,,0.00,Wunderground v.1.15,2013-04-24 20:32:00,
2013-04-24 16:37:00,81.9,66.2,30.08,ENE,68,2.0,10.0,59,0.00,,,0.00,Wunderground v.1.15,2013-04-24 20:37:00,
2013-04-24 16:42:00,82.0,67.2,30.08,NE,51,0.0,4.0,61,0.00,,,0.00,Wunderground v.1.15,2013-04-24 20:42:00,
2013-04-24 16:47:00,82.5,67.2,30.08,NE,37,5.0,8.0,60,0.00,,,0.00,Wunderground v.1.15,2013-04-24 20:47:00,
2013-04-24 16:52:00,82.8,67.0,30.08,ENE,71,4.0,7.0,59,0.00,,,0.00,Wunderground v.1.15,2013-04-24 20:52:00,
2013-04-24 16:57:00,82.7,67.4,30.08,ESE,107,3.0,7.0,60,0.00,,,0.00,Wunderground v.1.15,2013-04-24 20:57:00,
2013-04-24 17:02:00,83.0,67.2,30.08,ENE,77,4.0,5.0,59,0.00,,,0.00,Wunderground v.1.15,2013-04-24 21:02:00,
2013-04-24 17:07:00,82.5,66.7,30.08,East,81,2.0,8.0,59,0.00,,,0.00,Wunderground v.1.15,2013-04-24 21:07:00,
2013-04-24 17:12:00,81.9,67.6,30.08,ENE,77,4.0,5.0,62,0.00,,,0.00,Wunderground v.1.15,2013-04-24 21:12:00,
2013-04-24 17:17:00,81.8,67.5,30.08,NNE,33,0.0,9.0,62,0.00,,,0.00,Wunderground v.1.15,2013-04-24 21:17:00,
2013-04-24 17:22:00,82.6,67.8,30.08,ESE,112,2.0,9.0,61,0.00,,,0.00,Wunderground v.1.15,2013-04-24 21:22:00,
2013-04-24 17:27:00,82.7,67.9,30.08,NNE,27,1.0,9.0,61,0.00,,,0.00,Wunderground v.1.15,2013-04-24 21:27:00,
2013-04-24 17:32:00,82.4,68.1,30.08,ENE,75,2.0,6.0,62,0.00,,,0.00,Wunderground v.1.15,2013-04-24 21:32:00,
2013-04-24 17:37:00,81.9,66.2,30.08,ENE,60,4.0,6.0,59,0.00,,,0.00,Wunderground v.1.15,2013-04-24 21:37:00,
2013-04-24 17:42:00,81.9,67.1,30.09,NE,44,2.0,5.0,61,0.00,,,0.00,Wunderground v.1.15,2013-04-24 21:42:00,
2013-04-24 17:47:00,82.3,66.5,30.09,ENE,57,3.0,7.0,59,0.00,,,0.00,Wunderground v.1.15,2013-04-24 21:47:00,
2013-04-24 17:52:00,82.5,67.2,30.09,East,79,0.0,6.0,60,0.00,,,0.00,Wunderground v.1.15,2013-04-24 21:52:00,
2013-04-24 17:57:00,82.9,67.1,30.09,ENE,77,0.0,6.0,59,0.00,,,0.00,Wunderground v.1.15,2013-04-24 21:57:00,
2013-04-24 18:02:00,83.0,67.2,30.09,East,98,2.0,4.0,59,0.00,,,0.00,Wunderground v.1.15,2013-04-24 22:02:00,
2013-04-24 18:07:00,83.0,67.2,30.09,NE,50,1.0,6.0,59,0.00,,,0.00,Wunderground v.1.15,2013-04-24 22:07:00,
2013-04-24 18:12:00,82.8,67.5,30.09,East,95,2.0,7.0,60,0.00,,,0.00,Wunderground v.1.15,2013-04-24 22:12:00,
2013-04-24 18:17:00,82.3,68.0,30.09,ESE,108,5.0,9.0,62,0.00,,,0.00,Wunderground v.1.15,2013-04-24 22:17:00,
2013-04-24 18:22:00,82.0,67.7,30.09,NE,50,3.0,8.0,62,0.00,,,0.00,Wunderground v.1.15,2013-04-24 22:22:00,
2013-04-24 18:27:00,81.9,67.6,30.09,East,79,2.0,9.0,62,0.00,,,0.00,Wunderground v.1.15,2013-04-24 22:27:00,
2013-04-24 18:32:00,82.0,67.2,30.09,NNE,15,0.0,4.0,61,0.00,,,0.00,Wunderground v.1.15,2013-04-24 22:32:00,
2013-04-24 18:37:00,82.1,68.3,30.09,ENE,63,4.0,7.0,63,0.00,,,0.00,Wunderground v.1.15,2013-04-24 22:37:00,
2013-04-24 18:42:00,81.2,67.4,30.09,ESE,114,2.0,5.0,63,0.00,,,0.00,Wunderground v.1.15,2013-04-24 22:42:00,
2013-04-24 18:47:00,81.1,67.8,30.09,NNE,23,1.0,6.0,64,0.00,,,0.00,Wunderground v.1.15,2013-04-24 22:47:00,
2013-04-24 18:52:00,81.0,67.2,30.09,East,82,3.0,4.0,63,0.00,,,0.00,Wunderground v.1.15,2013-04-24 22:52:00,
2013-04-24 18:57:00,80.8,67.0,30.09,ENE,70,1.0,10.0,63,0.00,,,0.00,Wunderground v.1.15,2013-04-24 22:57:00,
2013-04-24 19:02:00,80.4,67.1,30.09,ENE,65,7.0,7.0,64,0.00,,,0.00,Wunderground v.1.15,2013-04-24 23:02:00,
2013-04-24 19:07:00,80.1,67.3,30.10,ENE,73,4.0,7.0,65,0.00,,,0.00,Wunderground v.1.15,2013-04-24 23:07:00,
2013-04-24 19:12:00,79.8,67.4,30.10,East,94,1.0,3.0,66,0.00,,,0.00,Wunderground v.1.15,2013-04-24 23:12:00,
2013-04-24 19:17:00,79.5,67.1,30.10,ENE,69,0.0,6.0,66,0.00,,,0.00,Wunderground v.1.15,2013-04-24 23:17:00,
2013-04-24 19:22:00,79.2,66.9,30.10,East,91,1.0,10.0,66,0.00,,,0.00,Wunderground v.1.15,2013-04-24 23:22:00,
2013-04-24 19:27:00,78.9,67.0,30.10,East,83,3.0,10.0,67,0.00,,,0.00,Wunderground v.1.15,2013-04-24 23:27:00,
2013-04-24 19:32:00,78.5,67.1,30.10,East,91,4.0,7.0,68,0.00,,,0.00,Wunderground v.1.15,2013-04-24 23:32:00,
2013-04-24 19:37:00,78.2,66.8,30.11,East,100,1.0,7.0,68,0.00,,,0.00,Wunderground v.1.15,2013-04-24 23:37:00,
2013-04-24 19:42:00,77.9,66.9,30.11,East,93,7.0,7.0,69,0.00,,,0.00,Wunderground v.1.15,2013-04-24 23:42:00,
2013-04-24 19:47:00,77.6,66.6,30.11,ENE,77,2.0,8.0,69,0.00,,,0.00,Wunderground v.1.15,2013-04-24 23:47:00,
2013-04-24 19:52:00,77.3,66.3,30.11,East,91,1.0,6.0,69,0.00,,,0.00,Wunderground v.1.15,2013-04-24 23:52:00,
2013-04-24 19:57:00,77.1,66.6,30.11,ENE,69,0.0,10.0,70,0.00,,,0.00,Wunderground v.1.15,2013-04-24 23:57:00,
2013-04-24 20:02:00,76.9,66.8,30.12,East,82,3.0,9.0,71,0.00,,,0.00,Wunderground v.1.15,2013-04-25 00:02:00,
2013-04-24 20:07:00,76.8,66.3,30.12,East,98,0.0,10.0,70,0.00,,,0.00,Wunderground v.1.15,2013-04-25 00:07:00,
2013-04-24 20:12:00,76.7,66.2,30.12,East,80,4.0,4.0,70,0.00,,,0.00,Wunderground v.1.15,2013-04-25 00:12:00,
2013-04-24 20:17:00,76.6,66.1,30.12,NNE,25,0.0,7.0,70,0.00,,,0.00,Wunderground v.1.15,2013-04-25 00:17:00,
2013-04-24 20:22:00,76.6,66.5,30.12,NE,42,1.0,4.0,71,0.00,,,0.00,Wunderground v.1.15,2013-04-25 00:22:00,
2013-04-24 20:27:00,76.4,66.3,30.12,ENE,61,0.0,4.0,71,0.00,,,0.00,Wunderground v.1.15,2013-04-25 00:27:00,
2013-04-24 20:32:00,76.3,66.6,30.12,East,82,0.0,5.0,72,0.00,,,0.00,Wunderground v.1.15,2013-04-25 00:32:00,
2013-04-24 20:37:00,76.2,66.9,30.12,ENE,73,0.0,6.0,73,0.00,,,0.00,Wunderground v.1.15,2013-04-25 00:37:00,
2013-04-24 20:42:00,76.2,66.9,30.12,ENE,77,2.0,5.0,73,0.00,,,0.00,Wunderground v.1.15,2013-04-25 00:42:00,
2013-04-24 20:48:00,76.2,66.9,30.13,ENE,73,0.0,6.0,73,0.00,,,0.00,Wunderground v.1.15,2013-04-25 00:48:00,
2013-04-24 20:53:00,76.2,66.9,30.12,East,87,0.0,2.0,73,0.00,,,0.00,Wunderground v.1.15,2013-04-25 00:53:00,
2013-04-24 20:58:00,76.1,66.8,30.13,East,86,0.0,5.0,73,0.00,,,0.00,Wunderground v.1.15,2013-04-25 00:58:00,
2013-04-24 21:03:00,75.9,67.0,30.13,East,87,0.0,5.0,74,0.00,,,0.00,Wunderground v.1.15,2013-04-25 01:03:00,
2013-04-24 21:08:00,75.8,66.9,30.13,East,82,0.0,5.0,74,0.00,,,0.00,Wunderground v.1.15,2013-04-25 01:08:00,
2013-04-24 21:13:00,75.8,66.9,30.13,ESE,103,1.0,3.0,74,0.00,,,0.00,Wunderground v.1.15,2013-04-25 01:13:00,
2013-04-24 21:18:00,75.8,66.9,30.13,ENE,66,0.0,7.0,74,0.00,,,0.00,Wunderground v.1.15,2013-04-25 01:18:00,
2013-04-24 21:23:00,75.7,66.8,30.13,ESE,104,3.0,5.0,74,0.00,,,0.00,Wunderground v.1.15,2013-04-25 01:23:00,
2013-04-24 21:28:00,75.7,66.8,30.13,ENE,77,0.0,5.0,74,0.00,,,0.00,Wunderground v.1.15,2013-04-25 01:28:00,
2013-04-24 21:34:00,75.6,66.7,30.13,East,79,0.0,6.0,74,0.00,,,0.00,Wunderground v.1.15,2013-04-25 01:34:00,
2013-04-24 21:39:00,75.5,66.6,30.14,East,79,0.0,7.0,74,0.00,,,0.00,Wunderground v.1.15,2013-04-25 01:39:00,
2013-04-24 21:44:00,75.5,66.6,30.14,ENE,72,0.0,4.0,74,0.00,,,0.00,Wunderground v.1.15,2013-04-25 01:44:00,
2013-04-24 21:49:00,75.4,66.5,30.14,East,88,0.0,4.0,74,0.00,,,0.00,Wunderground v.1.15,2013-04-25 01:49:00,
2013-04-24 21:54:00,75.4,66.1,30.14,East,82,2.0,6.0,73,0.00,,,0.00,Wunderground v.1.15,2013-04-25 01:54:00,
2013-04-24 21:59:00,75.3,66.0,30.14,East,87,0.0,6.0,73,0.00,,,0.00,Wunderground v.1.15,2013-04-25 01:59:00,
2013-04-24 22:04:00,75.3,66.0,30.15,NE,56,3.0,7.0,73,0.00,,,0.00,Wunderground v.1.15,2013-04-25 02:04:00,
2013-04-24 22:09:00,75.3,66.0,30.15,East,86,3.0,7.0,73,0.00,,,0.00,Wunderground v.1.15,2013-04-25 02:09:00,
2013-04-24 22:14:00,75.2,66.3,30.15,East,80,0.0,4.0,74,0.00,,,0.00,Wunderground v.1.15,2013-04-25 02:14:00,
2013-04-24 22:19:00,75.1,66.2,30.15,ENE,75,2.0,6.0,74,0.00,,,0.00,Wunderground v.1.15,2013-04-25 02:19:00,
2013-04-24 22:24:00,75.1,66.2,30.15,ENE,74,2.0,3.0,74,0.00,,,0.00,Wunderground v.1.15,2013-04-25 02:24:00,
2013-04-24 22:29:00,75.0,66.1,30.15,ENE,77,0.0,3.0,74,0.00,,,0.00,Wunderground v.1.15,2013-04-25 02:29:00,
2013-04-24 22:34:00,74.8,65.6,30.15,East,83,0.0,3.0,73,0.00,,,0.00,Wunderground v.1.15,2013-04-25 02:34:00,
2013-04-24 22:39:00,74.6,65.4,30.15,East,97,2.0,5.0,73,0.00,,,0.00,Wunderground v.1.15,2013-04-25 02:39:00,
2013-04-24 22:44:00,74.6,65.4,30.15,East,94,2.0,4.0,73,0.00,,,0.00,Wunderground v.1.15,2013-04-25 02:44:00,
2013-04-24 22:49:00,74.5,65.3,30.15,ENE,73,0.0,4.0,73,0.00,,,0.00,Wunderground v.1.15,2013-04-25 02:49:00,
2013-04-24 22:54:00,74.3,65.1,30.15,East,89,1.0,1.0,73,0.00,,,0.00,Wunderground v.1.15,2013-04-25 02:54:00,
2013-04-24 22:59:00,74.3,65.1,30.15,East,86,0.0,2.0,73,0.00,,,0.00,Wunderground v.1.15,2013-04-25 02:59:00,
2013-04-24 23:04:00,74.2,65.0,30.15,East,79,0.0,3.0,73,0.00,,,0.00,Wunderground v.1.15,2013-04-25 03:04:00,
2013-04-24 23:09:00,74.3,65.1,30.15,East,80,0.0,3.0,73,0.00,,,0.00,Wunderground v.1.15,2013-04-25 03:09:00,
2013-04-24 23:15:00,74.1,64.9,30.15,East,87,0.0,1.0,73,0.00,,,0.00,Wunderground v.1.15,2013-04-25 03:15:00,
2013-04-24 23:20:00,74.0,64.8,30.15,East,89,0.0,0.0,73,0.00,,,0.00,Wunderground v.1.15,2013-04-25 03:20:00,
2013-04-24 23:25:00,73.9,65.1,30.15,East,88,0.0,2.0,74,0.00,,,0.00,Wunderground v.1.15,2013-04-25 03:25:00,
2013-04-24 23:30:00,73.9,65.1,30.15,East,96,0.0,0.0,74,0.00,,,0.00,Wunderground v.1.15,2013-04-25 03:30:00,
2013-04-24 23:35:00,73.9,65.5,30.15,East,82,1.0,2.0,75,0.00,,,0.00,Wunderground v.1.15,2013-04-25 03:35:00,
2013-04-24 23:40:00,74.0,65.6,30.15,East,97,0.0,1.0,75,0.00,,,0.00,Wunderground v.1.15,2013-04-25 03:40:00,
2013-04-24 23:45:00,74.0,65.6,30.15,East,88,0.0,2.0,75,0.00,,,0.00,Wunderground v.1.15,2013-04-25 03:45:00,
2013-04-24 23:50:00,73.9,65.9,30.14,East,89,1.0,1.0,76,0.00,,,0.00,Wunderground v.1.15,2013-04-25 03:50:00,
2013-04-24 23:55:00,73.8,65.8,30.14,East,89,2.0,2.0,76,0.00,,,0.00,Wunderground v.1.15,2013-04-25 03:55:00,